#timestamp,LO_Frequency,Hit,StdDev 
1663693215.7,286047002.5,N
1663693235.5,286047002.7,N
1663693255.4,286046999.7,N
1663693275.2,286047002.8,N
1663693295.0,286046999.7,N
1663693295.9,286046999.7,N
1663693315.8,286047002.8,N
1663693335.6,286047000.4,N
1663693355.4,286047000.7,N
1663693375.3,286047001.1,N
1663693395.1,286047000.6,N
1663693415.9,286047001.0,N
1663693435.7,286047000.3,N
1663693455.5,286047000.4,N
1663693475.4,286047000.1,N
1663693495.2,286047000.4,N
1663693515.0,286047000.6,N
1663693515.9,286047000.6,N
1663693535.8,286047000.4,N
1663693555.6,286047000.8,N
1663693575.5,286046998.4,N
1663693595.3,286046999.4,N
1663693615.1,286046999.2,N
1663693635.9,286046996.8,N
1663693655.7,286046997.4,N
1663693675.5,286046998.0,N
1663693695.4,286046997.3,N
1663693715.2,286046998.0,N
1663693735.1,286046997.9,N
1663693736.0,286046997.9,N
1663693755.8,286046996.1,N
1663693775.6,286046993.7,Y
1663693795.5,286046995.9,P
1663693815.3,286046996.4,N
1663693835.2,286046993.5,P
1663693855.9,286046994.0,N
1663693875.7,286046994.0,N
1663693895.6,286046993.5,Y
1663693915.4,286046998.5,P
1663693935.2,286046998.3,N
1663693955.1,286046998.5,N
1663693956.0,286046998.5,N
1663693975.8,286046998.3,N
1663693995.7,286046999.3,N
1663694015.5,286046999.4,N
1663694035.3,286046999.2,N
1663694055.2,286046998.6,N
1663694075.0,286046998.4,N
1663694075.9,286046998.4,N
1663694095.8,286046998.6,N
1663694115.6,286046998.8,N
1663694135.4,286046998.3,N
1663694155.3,286046998.7,N
1663694175.1,286046998.7,N
1663694195.8,286046998.8,N
1663694215.7,286046998.9,N
1663694235.5,286046998.8,N
1663694255.4,286046998.9,N
1663694275.2,286046997.2,Y
1663694295.0,286046998.3,P
1663694295.9,286046998.3,P
1663694315.8,286046998.6,P
1663694335.6,286046998.5,Y
1663694355.4,286047002.6,P
1663694375.3,286046999.9,N
1663694395.1,286047000.7,N
1663694415.9,286047000.9,N
1663694435.7,286047001.2,N
1663694455.5,286046998.2,N
1663694475.4,286047000.0,N
1663694495.2,286047002.7,N
1663694515.0,286047001.5,N
1663694516.0,286047001.5,N
1663694535.8,286047002.6,N
1663694555.6,286047001.9,N
1663694575.5,286047002.3,N
1663694595.3,286047002.4,N
1663694615.1,286047001.6,N
1663694635.9,286047002.1,N
1663694655.7,286047002.6,N
1663694675.5,286047002.5,N
1663694695.4,286047002.8,N
1663694715.2,286047002.4,N
1663694735.1,286047002.5,N
1663694736.0,286047002.5,N
1663694755.8,286047002.6,N
1663694775.6,286047002.8,N
1663694795.5,286047002.7,N
1663694815.3,286046999.8,N
1663694835.2,286047002.4,N
1663694855.9,286047002.4,N
1663694875.7,286047000.2,N
1663694895.6,286047001.9,N
1663694915.4,286047002.3,N
1663694935.2,286047002.7,N
1663694955.1,286046999.7,N
1663694956.0,286046999.7,N
1663694975.8,286047000.6,N
1663694995.7,286046998.8,N
1663695015.5,286046999.0,N
1663695035.3,286046998.8,N
1663695055.2,286047001.1,N
1663695075.0,286047001.2,N
1663695075.9,286047001.2,N
1663695095.7,286047000.6,N
1663695115.6,286046999.4,N
1663695135.4,286046997.0,N
1663695155.3,286046996.5,N
1663695175.1,286046999.4,N
1663695176.0,286046999.4,N
1663695195.8,286046998.8,N
1663695215.7,286047000.7,N
1663695235.5,286047001.0,N
1663695255.3,286047000.8,N
1663695275.2,286047002.4,N
1663695295.0,286046998.3,N
1663695295.9,286046998.3,N
1663695315.8,286046998.4,N
1663695335.6,286047000.3,N
1663695355.4,286047000.6,N
1663695375.3,286046998.6,N
1663695395.1,286047000.5,N
1663695415.9,286046998.5,N
1663695435.7,286046999.2,N
1663695455.5,286046997.4,N
1663695475.4,286046997.2,N
1663695495.2,286046997.7,N
1663695515.0,286046997.4,N
1663695546.0,286046996.8,E
1663695555.9,286046999.0,N
1663695575.7,286046998.2,P
1663695595.6,286046998.2,P
1663695615.4,286047000.5,N
1663695635.2,286047002.8,N
1663695655.1,286047002.7,N
1663695656.0,286047002.7,N
1663695675.8,286046999.9,N
1663695695.7,286046999.8,N
1663695715.5,286047002.8,N
1663695735.3,286047004.3,N
1663695755.2,286047002.3,N
1663695775.0,286047001.9,N
1663695775.9,286047001.9,N
1663695795.7,286047004.3,N
1663695815.6,286047002.2,N
1663695835.4,286047001.6,N
1663695855.3,286047001.6,N
1663695875.1,286047001.4,N
1663695876.0,286047001.4,N
1663695895.8,286047001.7,N
1663695915.7,286047003.8,N
1663695935.5,286047004.4,N
1663695955.4,286047003.9,N
1663695975.2,286047004.1,N
1663695995.0,286047003.8,N
1663695995.9,286047003.8,N
1663696015.8,286047004.2,N
1663696035.6,286047003.3,N
1663696055.5,286047003.6,N
1663696075.3,286047005.9,Y
1663696095.1,286047002.6,P
1663696115.9,286047000.6,N
1663696135.7,286047001.5,N
1663696155.5,286047001.6,N
1663696175.4,286047002.1,Y
1663696195.2,286047000.6,P
1663696215.1,286047000.2,N
1663696216.0,286047000.2,N
1663696235.8,286047002.8,Y
1663696255.6,286046998.4,P
1663696275.5,286047001.0,N
1663696295.3,286046998.5,N
1663696315.2,286046998.4,N
1663696335.9,286046998.1,N
1663696355.7,286046998.3,N
1663696375.6,286046998.4,N
1663696395.4,286047000.0,N
1663696415.2,286046998.6,N
1663696435.1,286046998.6,N
1663696436.0,286046998.6,N
1663696455.8,286047001.0,N
1663696475.7,286046998.9,N
1663696495.5,286046999.0,N
1663696515.3,286046999.1,N
1663696535.2,286047000.9,N
1663696555.0,286047000.6,N
1663696555.9,286047000.6,N
1663696575.8,286047011.9,Y
1663696595.6,286047001.6,P
1663696615.4,286047003.7,P
1663696635.3,286047004.1,N
1663696655.1,286047004.2,N
1663696675.9,286047005.9,Y
1663696695.7,286047002.7,P
1663696715.5,286047002.6,P
1663696735.4,286047000.3,P
1663696755.2,286047000.3,N
1663696775.0,286047000.3,N
1663696775.9,286047000.3,N
1663696795.8,286046998.3,N
